This demonstration page uses our WeatherBlox Daily Observations layout. Learn more.

Left ArrowRight Arrow

39.92423, -83.80882

Hourly Observations for March 2, 2018

Temp ( °F °C ) Dew Point ( °F °C ) Humidity (%) Winds ( mph kmh ) Pressure ( in mb ) Visibility ( mi km ) Precip ( " mm )
12:56 am 00:56 Clear 35 1.7 30 -1.1 82 82 NNW 18 30 30.11 1020 10 16 N/A
1:56 am 01:56 Clear 34 1.1 30 -1.1 85 85 NNW 14 22 30.14 1021 10 16 N/A
2:56 am 02:56 Clear 34 1.1 31 -0.6 89 89 WNW 13 20 30.16 1021 10 16 N/A
3:56 am 03:56 Clear 33 0.6 30 -1.1 89 89 WNW 13 20 30.18 1022 10 16 N/A
4:56 am 04:56 Clear 32 undefined 29 -1.7 88 88 WNW 12 19 30.21 1023 10 16 N/A
5:56 am 05:56 Clear 32 undefined 28 -2.2 85 85 NW 14 22 30.24 1024 10 16 N/A
6:56 am 06:56 Clear 30 -1.1 27 -2.8 88 88 NW 13 20 30.26 1025 10 16 N/A
7:56 am 07:56 Sunny 32 undefined 27 -2.8 82 82 NW 13 20 30.29 1026 10 16 N/A
8:56 am 08:56 Sunny 33 0.6 26 -3.3 75 75 NNW 22 35 30.31 1026 10 16 N/A
9:56 am 09:56 Sunny 34 1.1 28 -2.2 79 79 NNW 18 30 30.33 1027 10 16 N/A
10:56 am 10:56 Sunny 36 2.2 29 -1.7 76 76 NNW 20 31 30.35 1028 10 16 N/A
11:56 am 11:56 Sunny 37 2.8 28 -2.2 70 70 NNW 13 20 30.38 1029 10 16 N/A
12:56 pm 12:56 Sunny 40 4.4 30 -1.1 68 68 NNW 15 24 30.37 1028 10 16 N/A
1:56 pm 13:56 Sunny 41 5 29 -1.7 62 62 NNW 16 26 30.37 1029 10 16 N/A
2:56 pm 14:56 Sunny 42 5.6 29 -1.7 60 60 N 17 28 30.37 1029 10 16 N/A
3:56 pm 15:56 Sunny 42 5.6 27 -2.8 55 55 NNW 16 26 30.39 1029 10 16 N/A
4:56 pm 16:56 Sunny 42 5.6 27 -2.8 55 55 NNW 17 28 30.40 1029 10 16 N/A
5:56 pm 17:56 Sunny 40 4.4 25 -3.9 55 55 NNW 14 22 30.40 1030 10 16 N/A
6:56 pm 18:56 Clear 37 2.8 25 -3.9 62 62 NNW 9 15 30.41 1030 10 16 N/A
7:56 pm 19:56 Clear 34 1.1 25 -3.9 70 70 NNW 7 11 30.43 1030 10 16 N/A
8:56 pm 20:56 Clear 34 1.1 25 -3.9 70 70 NNE 8 13 30.43 1030 10 16 N/A
9:56 pm 21:56 Clear 30 -1.1 24 -4.4 79 79 NE 7 11 30.43 1030 10 16 N/A
10:56 pm 22:56 Clear 33 0.6 25 -3.9 72 72 NE 5 7 30.44 1031 10 16 N/A
11:56 pm 23:56 Clear 30 -1.1 26 -3.3 85 85 N N/A 30.45 1031 10 16 N/A

Powered by AerisWeather